Skip Page Navigation
NASA JPL Caltech
NASA Logo - Jet Propulsion Laboratory + View the NASA Portal
+ Near-Earth Object (NEO) Program
Search JPL
JPL Home Earth Solar System Stars & Galaxies Technology
JPL Solar System Dynamics
BODIES ORBITS EPHEMERIDES TOOLS PHYSICAL DATA DISCOVERY FAQ SITE MAP
JPL Small-Body Database Browser
Search: [ help ]  
24899 Dominiona (1997 AU17)
Classification: Main-belt Asteroid          SPK-ID: 2024899
Ephemeris | Orbit Diagram | Orbital Elements | Physical Parameters | Discovery Circumstances ]

[ hide orbit diagram ]
Orbit Diagram
Note: Make sure you have Java enabled on your browser to see the applet. This applet is provided as a 3D orbit visualization tool. The applet was implemented using 2-body methods, and hence should not be used for determining accurate long-term trajectories (over several years or decades) or planetary encounter circumstances. For accurate long-term ephemerides, please instead use our Horizons system.
Orbit Viewer

Additional Notes: the orbits shown in the applet are color coded. The planets are white lines, and the asteroid/comet is a blue line. The bright white line indicates the portion of the orbit that is above the ecliptic plane, and the darker portion is below the ecliptic plane. Likewise for the asteroid/comet orbit, the light blue indicates the portion above the ecliptic plane, and the dark blue the portion below the ecliptic plane.

Orbit Viewer applet originally written and kindly provided by Osamu Ajiki (AstroArts), and further modified by Ron Baalke (JPL).


Orbital Elements at Epoch 2456400.5 (2013-Apr-18.0) TDB
Reference: MPO226309 (heliocentric ecliptic J2000)
 Element Value Uncertainty (1-sigma)   Units 
e 0.1402983 n/a  
a 2.3520181 n/a AU
q 2.0220340 n/a AU
i 5.00360 n/a deg
node 109.57875 n/a deg
peri 210.78920 n/a deg
M 326.37016 n/a deg
tp 2456523.5783645
(2013-Aug-19.07836450)
n/a JED
period 1317.5266731
3.61
n/a
n/a
d
yr
n 0.27323925 n/a deg/d
Q 2.6820022 n/a AU
  Orbit Determination Parameters
   # obs. used (total)      343  
   first obs. used      1995-??-??  
   last obs. used      2012-03-30  
   # oppositions      12  
   planetary ephem.      DE403  
   condition code      0  
   fit RMS      0.56  
   data source      MPC:mpn  
   producer      MPCLINUX  

Additional Information
 T_jup = 3.539 

Ephemeris | Orbit Diagram | Orbital Elements | Physical Parameters | Discovery Circumstances ]

Physical Parameter Table
Parameter Symbol Value Units Sigma Reference Notes
absolute magnitude H 15.5 mag n/a PDS3 (MPO 12444)  

24899 Dominiona           Discovered 1997 Jan. 14 by G. C. L. Aikman at the Dominion Astrophysical Observatory, Victoria.
Canada is officially the "Dominion of Canada" under the Constitution Acts of 1867 and 1982. Such designation was inspired by Psalm 72, verse 8: "He shall have dominion also from sea to sea, and from the river unto the ends of the earth."
NOTE: some special characters may not display properly (any characters within {} are an attempt to place the proper accent above a character)
Reference: 20011130/MPCPages.arcLast Updated: 2009-05-11

Alternate Designations
 1997 AU17 = 1995 QA2 = 1998 HG117 
Ephemeris | Orbit Diagram | Orbital Elements | Physical Parameters | Discovery Circumstances ]
ABOUT SSD CREDITS/AWARDS PRIVACY/COPYRIGHT GLOSSARY LINKS
FirstGov 2013-May-25 05:44 UT
(server date/time)  
NASA Home Page
Site Manager:   Donald K. Yeomans
Webmaster  Alan B. Chamberlin